Regional Weather Roundup
Issued by NWS

Home | Current Version | Previous Version | Text Only | Print | Product List | Glossary On
Versions: 1 2 3 4 5 6 7 8 9 10 11 12 13 14 15 16 17 18 19 20 21 22 23 24 25 26 27 28 29 30 31 32 33 34 35 36 37 38 39 40 41 42 43 44 45 46 47 48 49 50
000
ASUS43 KMKX 250321
RWRWI

WISCONSIN REGIONAL WEATHER ROUNDUP
NATIONAL WEATHER SERVICE MILWAUKEE/SULLIVAN WI
1000 PM CDT WED AUG 24 2016

NOTE: "FAIR" INDICATES FEW OR NO CLOUDS BELOW 12,000 FEET WITH NO
SIGNIFICANT WEATHER AND/OR OBSTRUCTIONS TO VISIBILITY.

WIZ001-002-006>008-014>016-023>028-250400-
NORTHWEST WISCONSIN

CITY           SKY/WX    TMP DP  RH WIND       PRES   REMARKS
SUPERIOR ARPT  CLOUDY    67  56  69 W3        29.92R
ASHLAND        PTCLDY    66  57  72 SW7       29.91R
HAYWARD        CLOUDY    62  58  86 S6        29.96R
SIREN          CLOUDY    66  57  71 W7        29.97S
CUMBERLAND     PTCLDY    63  54  72 W7        29.97F
RICE LAKE      PTCLDY    63  56  79 W3        29.98F
CHETEK         NOT AVBL
LADYSMITH      PTCLDY    66  58  74 W5        29.98S
EAU CLAIRE     CLOUDY    67  58  72 W3        29.96R
MENOMONIE      CLOUDY    67  58  73 W5        29.97S
NEW RICHMOND   MOCLDY    62  56  80 W6        29.99S
OSCEOLA        PTCLDY    64  59  81 SW3       30.01S
$$

WIZ003>005-009-010-017-018-250400-
NORTH CENTRAL WISCONSIN

CITY           SKY/WX    TMP DP  RH WIND       PRES   REMARKS
MANITOWISH WTR NOT AVBL
ARBOR VITAE    CLOUDY    65  60  83 W3        29.95R
WOODRUFF       CLOUDY    65  60  83 W3        29.95R
RHINELANDER    CLOUDY    67  61  81 W10       29.96R
EAGLE RIVER    PTCLDY    65  64  94 W6        29.94R
LAND O LAKES   CLOUDY    65  64  96 CALM      29.95R
PHILLIPS       CLOUDY    64  59  83 CALM      29.95F
TOMAHAWK       CLOUDY    64  62  91 SW3       29.96R
MEDFORD        CLOUDY    65  63  92 W6        29.96S
MERRILL        CLOUDY    67  65  91 W5        29.96R
$$

WIZ029-030-035-036-043>047-250400-
CENTRAL WISCONSIN

CITY           SKY/WX    TMP DP  RH WIND       PRES   REMARKS
WAUSAU         PTCLDY    69  64  84 W7        29.94S
MOSINEE        CLEAR     66  66 100 SW5       29.97R
MARSHFIELD     PTCLDY    68  64  87 W5        29.96R
STEVENS POINT  PTCLDY    67  65  94 SW3       29.96S
WAUPACA        PTCLDY    72  70  95 W3        29.95S
WAUTOMA        CLOUDY    71  68  90 W3        29.96R
WISC RAPIDS    PTCLDY    68  68 100 W3        29.97S
CAMP DOUGLAS   MOCLDY    66  64  94 W2        29.96S FOG
$$

WIZ011>013-019>022-031-037>040-048>050-250400-
NORTHEAST WISCONSIN

CITY           SKY/WX    TMP DP  RH WIND       PRES   REMARKS
ANTIGO         PTCLDY    65  64  98 CALM      29.96S
SHAWANO        CLEAR     71  67  87 SW3       29.94R
OCONTO         NOT AVBL
STURGEON BAY   CLEAR     71  67  87 W6        29.92R
GREEN BAY      PTCLDY    71  70  96 SW5       29.94R
MANITOWOC      CLEAR     73  70  90 W3        29.93R
APPLETON       MOCLDY    70  70 100 VRB5      29.94R
CLINTONVILLE   CLEAR     68  66  94 CALM      29.94S
OSHKOSH        CLOUDY    73  69  87 CALM      29.94R
$$

WIZ032>034-041-042-053>061-250400-
SOUTHWEST WISCONSIN

CITY           SKY/WX    TMP DP  RH WIND       PRES   REMARKS
LA CROSSE      CLOUDY    73  32  22 NW6       29.96S
SPARTA         MOCLDY    67  66  99 CALM      29.97F
VIROQUA        CLOUDY    68  67  96 NW5       29.99R
BOSCOBEL       PTCLDY    73  71  93 CALM      29.96R
PRAIRIE DU CHI CLOUDY    73  68  82 CALM      29.96S
PLATTEVILLE    CLOUDY    74  73  99 SW3       29.98R
$$

WIZ056-057-062-063-064-067-068-250400-
SOUTH CENTRAL WISCONSIN

CITY           SKY/WX    TMP DP  RH WIND       PRES   REMARKS
REEDSBURG      NOT AVBL
BARABOO/DELLS  MOCLDY    72  67  84 CALM      29.96S
LONE ROCK      PTCLDY    75  68  78 NW8       29.96R
MINERAL POINT  CLOUDY    73  72  94 W3        29.97S
MADISON        CLOUDY    75  74  96 CALM      29.95R
MIDDLETON      CLOUDY    75  75 100 CALM      29.97R
WATERTOWN      CLOUDY    74  74 100 CALM      29.95S
MONROE         CLOUDY    77  72  83 W6        29.97S
JANESVILLE     NOT AVBL
$$

WIZ051-052-058>065-066-070>072-250400-
SOUTHEAST WISCONSIN

CITY           SKY/WX    TMP DP  RH WIND       PRES   REMARKS
MILWAUKEE      PTCLDY    80  72  76 S5        29.93S HX  84
WAUKESHA       CLOUDY    72  70  94 CALM      29.96F
MILWAUKEE/TIMM MOCLDY    77  70  78 CALM      29.94F
RACINE         CLOUDY    75  71  87 S3        29.96R
BURLINGTON     CLOUDY    70  69  96 S3        29.95F
KENOSHA        CLOUDY    75  71  87 S3        29.95R
FOND DU LAC    MOCLDY    72  70  93 CALM      29.94S
SHEBOYGAN      CLOUDY    68  67  96 CALM      29.94R
WEST BEND      CLOUDY    73  70  88 CALM      29.95S
JUNEAU         CLOUDY    72  71  95 CALM      29.96S
$$

LSZ147-162-250400-
LAKE SUPERIOR

STATION/POSITION TIME  TEMP    WIND        PRES    WAVE
                       AIR SEA DIR/SP/G            HT/PER
                 (UTC) (F)     (DEG/KT/KT) (MB)    (FT/S)
W MID LAKE BUOY  0250   71 69  260/ 16/ 17 1009.5R   2/ 4
DEVILS ISLAND    0300   70     270/ 16/ 17 1011.4R
PORT WING        0200   72     250/  6/ 12 1012.2
SAXON HARBOR     0200   71     190/  5/  8 1011.9
$$

LMZ867-665-643>646-250400-
LAKE MICHIGAN

STATION/POSITION TIME  TEMP    WIND        PRES    WAVE
                       AIR SEA DIR/SP/G            HT/PER
                 (UTC) (F)     (DEG/KT/KT) (MB)    (FT/S)
CHAMBERS ISLAND  0200   74     200/  5/  8 1011.9R
S GREEN BAY BUOY 0300   74 73  240/ 10/ 12 1012.9R
N MID LAKE BUOY  0250   71 70  230/ 12/ 14 1011.1R   5/ 7
NORTHPORT PIER   0200   72     210/  3/  6 1011.9R
SISTER BAY       0207   75     250/  8/  9   N/A
ALGOMA LAKESHORE 0200          260/  5/  8   N/A
KEWAUNEE LAKESHO 0300   72     290/  2/  3 1012.9R
SHEBOYGAN LAKESH 0300   75     290/  5/  6 1012.9R
PORT WASHINGTON  0200   64      CALM  /  1 1014.6R
ATWATER BUOY     0300   64 46  160/  6/  8   N/A
MILWAUKEE LAKESH 0310   75     110/  2/  2   N/A
S MID LAKE BUOY  0250   75 75  190/ 10/ 12 1013.3R   1/ 4
KENOSHA   LAKESH 0300   76     190/  5/  6 1013.9R
$$

TC  - TEMPERATURE IN CELSIUS
VSB - VISIBILITY IN STATUTE MILES
WCI - WIND CHILL INDEX
HX  - HEAT INDEX





USA.gov is the U.S. government's official web portal to all federal, state and local government web resources and services.